Home   Weather   Las Palmas   Past weeks

Flag for Spain Past Weather in Las Palmas, Canary Islands, Spain — Yesterday and Last 2 Weeks

Now
64 °F

Clear.


Feels Like: 64 °F
Forecast: N/A
Wind: 6 mph from Northeast

Location: Las Palmas De Gran Canaria / Gando

Current Time: Jan 16, 2017 at 7:27:10 pm

Latest Report: Jan 16, 2017 at 6:30 pm


Visibility: 10 mi

Pressure: 30.12 "Hg

Humidity: 56%

Dew Point: 48 °F

Location of Las PalmasLocation

Past Weather in Las Palmas — Graph

°F

Las Palmas Temperature Yesterday

Maximum temperature yesterday: 68 °F (at 2:30 pm)
Minimum temperature yesterday: 63 °F (at 1:30 am)
Average temperature yesterday: 65 °F

High & Low Weather Summary for the Past Weeks

 TemperatureHumidityPressure
High73 °F (Jan 2, 1:00 pm)94% (Jan 12, 4:30 am)30.30 "Hg (Jan 12, 4:30 am)
Low57 °F (Jan 3, 4:30 am)12% (Jan 6, 9:30 pm)29.95 "Hg (Jan 2, 2:00 pm)
Average65 °F55%30.14 "Hg
* Reported Jan 1 6:00 pm — Jan 16 6:00 pm, Las Palmas, Weather by CustomWeather, © 2017

Note: Actual official high and low records may vary slightly from our data, if they occured in-between our weather recording intervals... More about our weather records

Advertising

Las Palmas Weather History for the Previous 24 Hours

Scroll right to see more
 ConditionsComfort  
Time TempWeatherWind HumidityBarometerVisibility
6:00 pm
Mon, Jan 16
66 °FPassing clouds.6 mph56%30.12 "HgN/A
5:30 pm66 °FPassing clouds.5 mph52%30.12 "HgN/A
5:00 pm66 °FPassing clouds.6 mph56%30.09 "HgN/A
4:30 pm68 °FPassing clouds.5 mph49%30.09 "HgN/A
4:00 pm68 °FPassing clouds.5 mph53%30.09 "HgN/A
3:30 pm68 °FPassing clouds.6 mph53%30.09 "HgN/A
3:00 pm68 °FPassing clouds.7 mph53%30.09 "HgN/A
2:30 pm68 °FPassing clouds.7 mph53%30.12 "HgN/A
2:00 pm68 °FPassing clouds.7 mph60%30.12 "HgN/A
1:30 pm68 °FPassing clouds.9 mph60%30.12 "HgN/A
1:00 pm68 °FScattered clouds.7 mph64%30.15 "HgN/A
12:30 pm68 °FScattered clouds.6 mph64%30.18 "HgN/A
12:00 pm68 °FPassing clouds.7 mph64%30.18 "HgN/A
11:30 am68 °FPassing clouds.7 mph64%30.18 "HgN/A
11:00 am66 °FPassing clouds.7 mph68%30.18 "HgN/A
10:30 am66 °FPassing clouds.8 mph68%30.18 "HgN/A
10:00 am66 °FPassing clouds.9 mph68%30.18 "HgN/A
9:30 am64 °FPassing clouds.13 mph68%30.18 "HgN/A
9:00 am64 °FScattered clouds.13 mph73%30.15 "HgN/A
8:30 am64 °FScattered clouds.12 mph73%30.15 "HgN/A
8:00 am64 °FScattered clouds.10 mph73%30.15 "HgN/A
7:30 am64 °FPassing clouds.12 mph73%30.15 "HgN/A
7:00 am64 °FPassing clouds.13 mph73%30.12 "HgN/A
6:30 am64 °FPassing clouds.13 mph73%30.12 "HgN/A
6:00 am64 °FPartly cloudy.13 mph73%30.12 "HgN/A
5:30 am64 °FLight rain. Partly cloudy.13 mph73%30.12 "HgN/A
5:00 am64 °FPassing clouds.10 mph68%30.12 "HgN/A
4:30 am64 °FPartly cloudy.9 mph68%30.12 "HgN/A
4:00 am64 °FPartly cloudy.13 mph68%30.12 "HgN/A
3:30 am64 °FPartly cloudy.12 mph68%30.12 "HgN/A
3:00 am64 °FPartly cloudy.10 mph64%30.12 "HgN/A
2:30 am64 °FPassing clouds.12 mph64%30.12 "HgN/A
2:00 am64 °FPassing clouds.10 mph64%30.12 "HgN/A
1:30 am64 °FPassing clouds.15 mph64%30.12 "HgN/A
1:00 am64 °FPassing clouds.18 mph68%30.12 "HgN/A
12:00 am64 °FPassing clouds.20 mph68%30.12 "HgN/A
11:30 pm
Sun, Jan 15
64 °FPassing clouds.21 mph64%30.12 "HgN/A
11:00 pm64 °FPassing clouds.17 mph68%30.12 "HgN/A
10:30 pm64 °FPassing clouds.16 mph68%30.12 "HgN/A
10:00 pm64 °FPassing clouds.16 mph64%30.12 "HgN/A
9:30 pm64 °FPassing clouds.18 mph64%30.12 "HgN/A
9:00 pm64 °FPassing clouds.18 mph60%30.12 "HgN/A
8:30 pm64 °FPassing clouds.21 mph56%30.12 "HgN/A
8:00 pm64 °FPassing clouds.21 mph60%30.12 "HgN/A
7:30 pm64 °FPassing clouds.15 mph56%30.12 "HgN/A
7:00 pm64 °FPassing clouds.15 mph56%30.12 "HgN/A
Weather by CustomWeather, © 2017

See weather overviewHow to use our weather pages